logo
Search for airport 
image banner adimage banner adimage banner ad
image banner ad

RPVM - Mactan-Cebu International Airport

Located in Lapu-Lapu City, Philippines

ICAO - RPVM, IATA - CEB

Data provided by Airmate  

General information

Coordinates: N10°18'27" E123°58'46"
Elevation is 34 feet MSL.
Magnetic variation is -2° East
Rated:
View ratings:
[VIEW]
View others Airports in Cebu

Operational data

Special qualification required
Current time UTC:
Current local time:
Weather
METAR: RPVM 240600Z VRB02KT 9999 FEW020 BKN100 31/23 Q1007 NOSIG RMK A2974
TAF: TAF COR RPVM 240500Z 2406/2512 19005KT 9999 FEW020 BKN100 TEMPO 2406/2412 13005KT 7000 TSRA SCT020CB OVC090 TEMPO 2412/2418 5000 +SHRA SCT020 OVC090
View NOTAMs / SUP AIP / TFR affecting this airport [VIEW]
Communications frequencies: [VIEW]

Runways:

RWY identifierQFULength (ft)Width (ft)SurfaceLDA (ft)
0445°10860148CONC+ASPH10860
22225°10860148CONC+ASPH10860

Airport contact information

Address: Lapu-Lapu City Philippines

Satellite view of RPVM